Location: Unspecified
(54.1780°N, 0.0000°E)
Time: 10:00:12
(UTC+00:00)

Tiros 1 - Pass Details

Date: 19 June 2019
Orbit: 630 x 664 km, 48.4° (Epoch: 15 July)

Event Time Altitude Azimuth Distance (km) Brightness Sun altitude
Rises 06:34:45 0° 272° (W) 2,921 9.9 23.6°
Reaches altitude 10° 06:38:19 10° 244° (WSW) 2,008 9.2 24.1°
Maximum altitude 06:40:18 13° 218° (SW) 1,834 9.2 24.4°
Drops below altitude 10° 06:42:16 10° 192° (SSW) 2,003 9.6 24.7°
Sets 06:45:50 0° 164° (SSE) 2,909 10.6 25.2°
